NOAA 16 DEB, 41063

Orbit data source: Space-Track

NOAA 16 DEB, 41063 is space debris in SSO originally from a launch on Thu, 21 Sep 2000 UTC launched from the Air Force Western Test Range (AFWTR). Debris objects in space refer to the collection of defunct objects orbiting the Earth. Examples of debris include non-operational satellites, rocket bodies, and fragments generated from explosions, collisions, or faulty payload assembly.

Loading next visibility...
Identifier
41063, 2000-055W
Orbit
SSO
Country
Flag of USUS
Related business
Manufacturer
Unknown
Mission
Spacecraft
Bus & Motor
Unknown
Mass
Unknown
Launch date (UTC)
2000-09-21 (25 years ago)
Launch vehicle
Unknown
Launch site
Air Force Western Test Range (AFWTR)
Object type
Payload
Rocket body
Debris
Shape & HBR
Unknown shape, 0.1 m
Radar Cross Section
Small (<0.1 m²)

Expand to show TLE details & history
Last TLE update: 13 hours ago

TLE from 13 hours ago
0 NOAA 16 DEB
1 41063U 00055W   25301.44774082  .00004164  00000-0  18466-2 0  9993
2 41063  98.7605  18.8560 0019397  26.1785 334.0369 14.23486556511882
Epoch: 2025-10-28T10:44Z
TLE epoch observation values (Epoch: 2025-10-28T10:44:44.806Z)
Latitude
-0.00011°
Longitude
-179.36577°
Altitude
803.964 km
Speed
7.458 km/s
True Right ascension
01h 15m 25s
True Declination
0° 00' 00"
Sunlit
Object was in full shadow at epoch
Visualization orbit readout
Latitude
Unknown
Longitude
Unknown
Altitude
Unknown
Speed
Unknown
Apparent Right ascension
Unknown
Apparent Declination
Unknown
Sunlit
N/A
Visualization observer readout
Local Sidereal Time
19:12:33
Azimuth
Unknown
Elevation
Unknown
Doppler factor
Unknown
Orbital elements
Apogee altitude
824.686 km
Perigee altitude
796.798 km
Semi-major axis
7,188.879 km
Eccentricity
0.00194
Inclination
98.7605°
RAAN
18.856°
Arg. of periapsis
26.1785°
True anomaly
333.93938°
Mean anomaly
334.0369°
Eccentric anomaly
333.98816°
Mean motion
3.56083 °/min
Orbital period
101.1 mins
BSTAR
0.0018466
Loading maneuver chart data...
Computing Atmospheric mass density...
Loading historical data...
Loading historical data...
Loading historical data...
Loading historical data...
Loading historical data...
Loading historical data...
Loading historical data...

Documentation

Showing up to 5 results
|